Wind_Speed
7 6 6 5 4 4 5 6 6 4 3 2 2 3 4 5 5 4 5 5 5 4 4 4 4 4 5 5 5 5 5 4 4 4 4 4 4 5 5 6 6 7 7 8 8 8 8 7 5
9 9 9 8 7 7 9 8 8 6 5 3 2 2 3 4 4 4 4 5 5 5 6 7 7 7 8 8 8 7 7 6 6 6 6 6 6 6 7 7 8 8 9 9 10 10 10 9 8
12 13 13 12 11 12 12 11 10 8 6 5 2 1 1 2 3 3 4 5 6 7 8 9 10 10 10 10 9 9 8 8 7 7 7 7 7 8 8 8 8 8 9 10 10 11 11 11 11
15 16 17 16 16 15 14 13 12 10 9 7 5 3 2 2 3 4 5 6 7 9 10 11 12 12 12 11 11 10 10 9 9 8 8 8 8 9 9 9 9 9 9 9 10 11 12 12 12
17 19 20 20 20 18 16 15 14 13 11 8 7 5 4 4 5 6 6 8 9 10 12 13 13 13 14 14 13 12 11 10 10 10 9 9 9 9 9 10 10 10 11 11 11 12 13 13 13
19 20 21 22 24 21 20 17 16 15 13 11 9 8 6 6 7 7 8 9 11 13 14 15 16 16 15 16 15 15 14 13 12 12 11 11 11 11 11 11 12 12 12 13 13 13 14 14 14
20 22 24 26 26 24 22 20 18 17 16 15 12 11 9 8 9 10 11 12 14 15 17 18 19 19 18 18 18 18 17 16 15 14 14 13 13 13 13 13 13 14 14 14 15 15 15 15 15
23 24 25 27 27 27 25 23 21 20 19 18 16 15 14 13 13 13 14 15 17 18 20 21 22 22 22 21 21 22 21 20 19 19 18 17 16 16 15 14 15 15 15 15 15 15 15 15 16
25 25 25 27 29 29 27 25 24 23 22 21 19 19 19 18 18 18 19 19 20 21 22 23 23 24 25 24 25 25 25 24 23 22 22 20 19 18 17 16 15 16 16 16 16 16 16 16 16
25 26 27 29 29 29 28 27 25 25 25 24 22 23 22 21 22 22 23 23 23 24 24 25 25 26 26 26 26 26 26 25 25 24 23 22 21 21 19 18 18 18 18 18 18 18 17 17 17
24 26 27 27 28 28 27 26 25 25 26 25 24 25 25 25 25 25 25 24 24 24 24 24 25 26 27 26 26 25 24 23 22 22 22 22 23 22 20 21 21 21 21 20 20 20 19 18 18
19 21 24 24 25 26 26 26 25 26 25 25 26 26 27 27 27 27 26 25 24 23 24 24 24 25 24 24 24 22 21 20 21 20 20 20 21 22 22 23 23 23 23 22 22 22 21 20 20
12 15 18 20 21 22 23 23 25 26 26 26 26 27 27 27 27 26 25 24 23 23 23 22 21 21 21 21 21 20 20 20 20 20 20 21 22 23 24 24 25 25 25 25 24 24 23 23 22
7 9 12 14 15 17 18 19 21 22 24 25 26 27 27 27 26 25 23 23 22 21 21 20 19 19 19 19 19 20 20 20 20 21 22 23 24 25 25 26 26 26 26 26 26 26 26 25 24
6 5 6 8 11 12 13 15 16 19 21 22 24 25 25 24 23 22 21 20 18 17 17 16 15 16 17 17 18 19 20 21 22 22 23 24 25 25 26 26 26 26 26 27 27 27 26 26 25
7 5 5 6 8 9 10 13 15 17 18 20 21 22 22 22 21 20 18 16 14 14 14 13 14 15 15 17 18 19 20 20 21 22 22 23 24 24 25 25 25 25 26 26 26 27 27 26 26
9 5 5 7 8 9 10 12 14 16 18 19 20 20 20 19 18 17 14 12 12 11 12 12 13 14 15 16 17 18 19 20 20 21 22 22 23 23 24 24 24 25 25 26 26 26 26 26 26
5 5 7 9 9 9 10 12 13 15 17 17 18 19 17 16 14 12 11 9 9 9 9 10 12 13 14 15 16 17 18 19 19 20 20 21 22 22 23 23 24 25 25 25 25 26 26 26 26
6 7 9 10 10 10 11 13 14 15 16 15 16 15 14 12 10 9 6 5 6 7 8 10 12 13 15 16 17 18 19 19 19 19 20 20 21 21 22 23 23 24 25 25 25 25 25 26 26
7 8 10 11 11 11 13 13 15 13 12 12 11 9 9 7 6 4 2 3 5 7 9 11 13 15 16 17 18 19 20 20 20 20 19 19 20 21 21 22 23 24 24 25 25 25 26 26 26
8 8 10 11 10 11 12 12 12 9 5 4 4 3 2 0 1 1 2 4 7 9 12 13 15 16 18 18 18 19 19 19 19 19 19 18 18 19 20 21 22 23 23 24 24 25 26 27 27
8 8 9 9 9 11 11 11 11 8 5 4 3 3 3 3 3 3 4 6 9 11 13 15 16 17 17 18 18 18 18 18 18 18 17 17 17 17 18 19 19 21 22 23 24 25 26 27 27
8 8 8 8 8 9 10 9 9 6 6 5 5 5 4 4 4 5 7 9 11 13 15 16 16 17 17 17 17 17 18 18 18 18 17 17 17 17 18 18 19 20 22 23 24 25 27 28 29
8 8 8 8 7 9 8 7 7 5 5 4 4 5 5 6 7 8 10 11 13 15 16 16 17 17 17 18 18 18 18 19 19 19 19 18 18 18 19 20 21 22 23 24 26 27 29 30 31
8 7 8 8 7 10 8 6 6 5 5 5 5 6 7 8 10 11 12 13 15 16 17 17 18 18 18 18 18 18 19 20 20 20 20 20 20 20 21 22 23 24 25 26 28 29 30 31 33
8 7 5 4 6 9 9 8 8 7 7 7 8 9 9 10 12 13 14 15 17 17 18 18 19 19 19 19 19 20 21 22 22 22 22 23 23 24 25 26 26 27 27 29 30 31 32 33 34
9 7 7 6 6 6 8 10 10 10 10 10 11 11 11 12 14 15 16 17 18 18 19 19 20 20 20 21 21 22 23 23 24 24 25 25 26 27 28 29 30 30 31 31 32 33 33 34 35
9 9 7 5 5 5 9 10 12 13 13 13 13 13 13 14 15 16 17 18 18 19 19 20 20 20 21 22 23 24 25 25 26 27 27 28 28 29 30 32 33 34 34 35 35 35 35 35 36
11 10 8 7 7 4 6 10 14 13 14 14 14 14 14 15 16 16 17 17 18 19 19 20 20 21 22 23 25 26 27 27 28 29 29 30 31 32 33 34 36 37 37 38 38 37 37 36 36
11 11 10 8 10 9 7 10 15 15 15 14 14 14 14 14 15 16 17 17 18 19 19 20 21 22 24 25 27 28 28 29 30 31 32 33 34 36 37 38 39 40 41 41 40 39 38 37 36
Wind_Direction
319 300 283 270 266 264 260 273 291 304 326 356 34 66 77 73 62 49 33 27 22 11 353 338 319 300 289 284 282 283 285 291 293 290 287 287 286 285 284 284 285 288 290 292 294 296 299 300 299
306 292 276 269 259 248 260 269 276 284 301 318 350 57 77 63 55 35 18 8 354 339 326 314 306 298 293 287 281 278 278 279 282 283 285 285 285 286 287 285 283 283 282 282 284 286 288 289 286
291 281 273 272 263 251 257 263 267 273 282 290 304 324 36 50 39 6 354 343 330 320 311 304 300 297 296 293 288 284 281 280 280 281 283 284 283 285 287 286 285 286 285 283 283 284 284 283 280
282 279 271 264 262 263 259 261 263 265 272 280 287 304 315 334 340 331 327 321 312 307 303 300 297 296 295 295 294 293 290 287 284 282 284 284 284 284 285 287 289 289 289 288 287 286 285 282 277
278 274 270 264 263 261 259 258 259 259 265 269 278 291 302 309 315 317 312 305 298 296 295 295 294 293 294 294 294 294 294 292 289 288 289 289 288 286 286 288 288 289 289 289 288 286 283 281 279
277 274 266 256 260 258 256 254 255 257 261 264 272 283 293 303 307 307 302 295 290 288 288 287 288 288 289 291 291 291 292 292 291 291 290 288 288 286 285 288 289 289 289 289 288 286 283 280 276
272 269 264 258 257 254 253 252 251 256 260 265 270 275 288 300 306 302 298 291 285 284 282 281 282 283 284 285 286 288 289 289 288 288 287 285 286 286 287 288 289 289 290 290 289 286 281 278 276
266 264 262 256 251 250 251 250 250 252 258 265 267 273 286 300 305 305 302 296 289 285 281 278 277 278 279 281 282 283 284 285 284 285 285 285 285 286 287 288 289 290 291 292 292 290 284 278 277
262 258 255 250 247 247 249 248 249 252 256 261 265 275 287 297 303 305 304 299 293 285 279 276 276 279 279 280 280 279 280 280 281 284 284 284 284 285 286 289 289 290 291 293 293 291 287 281 278
258 252 250 250 249 248 248 248 250 252 255 260 267 277 285 294 301 305 306 302 295 287 281 277 276 276 277 277 280 282 280 278 280 283 281 279 280 282 286 289 291 291 291 292 292 290 288 284 281
257 250 251 250 248 247 247 247 249 252 253 259 266 276 284 292 298 302 304 300 295 288 283 279 277 278 278 278 282 282 283 284 285 285 282 281 281 283 285 288 290 290 289 288 289 289 287 284 281
262 254 252 250 248 246 246 247 248 252 256 263 270 276 283 290 295 298 300 297 294 288 284 281 279 281 281 280 282 288 291 290 289 290 294 289 287 287 286 286 288 287 287 286 286 286 286 283 279
272 259 253 251 249 248 248 248 249 253 259 265 271 276 282 288 292 295 295 293 291 287 285 283 283 280 279 284 286 292 296 296 294 293 291 290 289 287 285 285 285 285 285 285 283 282 282 281 279
301 274 261 257 256 254 252 253 254 257 262 266 271 277 282 286 290 291 290 290 289 287 284 283 284 283 284 288 290 292 294 294 292 291 289 287 287 286 284 283 282 282 282 281 280 279 278 278 277
350 315 284 272 270 266 264 262 261 262 265 268 271 276 280 284 285 286 287 287 288 287 287 288 291 292 292 295 297 297 296 294 291 289 287 286 285 284 283 283 282 281 281 280 278 277 277 275 274
20 12 335 302 289 280 274 267 266 262 263 265 268 271 274 277 280 282 283 284 289 293 294 296 299 298 299 300 301 299 297 295 292 289 287 285 284 283 283 283 283 282 281 280 278 277 276 275 273
21 7 317 312 306 293 281 270 268 266 263 263 264 265 267 270 275 278 278 281 292 298 299 302 304 304 305 304 303 302 300 298 295 291 288 286 284 282 282 283 283 282 281 280 278 277 276 274 271
333 330 313 308 303 293 285 281 277 271 265 263 261 261 260 266 269 273 276 282 292 302 308 312 312 312 312 312 311 309 306 302 299 295 292 290 287 284 283 282 282 281 281 281 280 278 276 274 272
346 333 321 316 307 297 291 291 293 283 272 268 260 252 250 258 263 271 280 290 307 318 322 323 323 323 322 321 320 319 316 312 307 303 300 296 293 290 288 286 285 284 282 281 280 278 277 275 273
333 324 317 318 313 308 305 304 308 297 279 266 258 243 242 258 267 268 303 330 333 333 334 333 331 331 330 328 326 323 321 319 316 313 309 304 299 296 293 291 289 288 286 284 281 279 278 276 274
326 316 312 314 317 322 324 326 331 331 314 291 240 230 224 30 51 28 6 351 345 341 338 335 334 334 332 330 327 324 322 321 320 317 314 310 306 302 298 295 293 291 289 288 286 283 280 278 275
320 311 309 316 330 334 338 341 345 355 13 30 74 94 81 61 38 23 1 350 344 340 338 335 333 331 328 327 326 326 326 325 324 322 319 317 314 311 307 303 300 297 295 293 291 288 285 281 277
314 311 307 310 317 330 341 351 354 7 22 38 58 61 52 34 15 358 346 341 338 337 334 330 328 326 325 326 327 328 328 328 327 325 323 321 319 317 314 311 308 305 301 298 295 292 288 284 280
318 322 319 321 324 323 329 348 353 4 12 13 11 12 5 352 344 339 334 331 329 327 325 322 322 323 323 323 324 326 326 327 327 326 324 322 321 319 318 315 312 309 306 302 299 294 290 286 282
318 338 348 343 329 300 303 317 322 333 342 345 343 337 333 331 328 323 321 320 319 318 318 317 317 319 319 320 322 324 325 325 325 324 323 321 320 319 319 316 314 311 308 305 302 298 293 288 284
309 318 313 299 299 297 292 292 296 304 312 317 318 317 316 318 317 315 313 312 312 312 312 312 313 315 316 318 320 322 323 322 322 321 319 318 317 316 316 316 314 311 309 306 303 299 294 290 285
302 302 301 317 314 314 291 286 287 295 302 306 309 310 310 310 309 308 307 306 306 306 308 309 311 313 314 317 320 322 322 321 321 320 318 317 315 314 314 314 313 311 309 306 303 299 295 291 286
286 291 300 318 305 307 304 299 291 294 298 301 303 305 306 305 303 302 301 301 301 303 305 308 311 314 317 321 323 323 323 321 320 319 318 317 315 314 313 313 312 310 308 305 303 299 296 292 287
287 286 288 290 285 280 292 290 284 291 294 297 298 299 298 298 298 298 298 298 300 302 305 309 313 318 322 323 324 324 323 322 321 319 318 317 316 314 312 312 310 309 307 305 302 299 296 292 287
279 280 284 284 284 284 283 288 282 287 289 292 295 295 295 294 296 298 298 299 301 304 308 313 318 323 324 325 325 325 324 324 322 320 318 317 316 315 313 312 310 309 306 305 302 299 296 292 287
Height
5932 5931 5931 5931 5932 5933 5932 5931 5930 5929 5928 5927 5925 5924 5924 5924 5924 5926 5923 5921 5921 5920 5920 5920 5920 5920 5919 5919 5918 5917 5916 5915 5914 5913 5913 5912 5912 5911 5911 5910 5910 5910 5909 5909 5908 5908 5907 5907 5907
5931 5930 5930 5930 5931 5932 5931 5929 5929 5928 5927 5926 5924 5924 5923 5923 5922 5922 5921 5920 5920 5919 5919 5919 5918 5918 5918 5917 5917 5916 5915 5914 5913 5912 5911 5911 5910 5910 5909 5909 5908 5908 5908 5907 5907 5906 5906 5906 5905
5929 5928 5928 5929 5929 5929 5928 5928 5927 5927 5926 5925 5924 5923 5922 5922 5921 5921 5920 5919 5919 5918 5918 5917 5916 5916 5915 5915 5915 5914 5913 5912 5912 5911 5910 5909 5908 5908 5907 5907 5907 5906 5906 5906 5905 5905 5904 5904 5903
5927 5926 5926 5927 5926 5925 5925 5926 5925 5925 5924 5923 5922 5922 5921 5920 5920 5920 5919 5918 5918 5917 5916 5915 5914 5914 5913 5912 5912 5911 5911 5910 5909 5909 5908 5907 5906 5906 5905 5905 5904 5904 5904 5904 5903 5903 5902 5901 5901
5924 5923 5923 5922 5922 5922 5922 5923 5923 5923 5922 5922 5921 5920 5919 5919 5919 5918 5917 5917 5916 5915 5914 5914 5913 5912 5911 5910 5910 5909 5908 5908 5907 5906 5906 5905 5904 5904 5903 5903 5902 5902 5901 5901 5901 5900 5899 5899 5898
5921 5920 5920 5918 5917 5918 5919 5920 5920 5920 5920 5919 5919 5919 5918 5918 5918 5917 5916 5915 5915 5914 5912 5911 5910 5910 5909 5908 5907 5906 5906 5905 5904 5904 5903 5902 5902 5901 5901 5900 5900 5899 5899 5898 5898 5897 5896 5896 5895
5917 5916 5914 5912 5912 5914 5915 5916 5917 5918 5917 5917 5917 5916 5916 5916 5916 5915 5914 5914 5912 5911 5910 5908 5907 5907 5906 5905 5904 5904 5903 5902 5902 5901 5900 5899 5898 5898 5897 5897 5896 5896 5895 5895 5894 5894 5893 5892 5891
5910 5911 5908 5907 5907 5909 5911 5913 5914 5915 5914 5915 5914 5914 5914 5914 5914 5913 5912 5911 5910 5908 5907 5905 5904 5903 5902 5902 5901 5900 5899 5898 5898 5897 5896 5895 5894 5894 5893 5892 5892 5891 5891 5890 5890 5890 5889 5888 5887
5904 5905 5903 5902 5902 5904 5906 5908 5910 5911 5911 5912 5911 5912 5912 5912 5911 5911 5910 5908 5907 5905 5904 5902 5901 5899 5898 5898 5897 5896 5895 5894 5893 5893 5891 5891 5890 5889 5889 5888 5887 5887 5886 5886 5885 5885 5884 5883 5883
5897 5898 5897 5896 5897 5898 5900 5903 5905 5907 5908 5908 5909 5909 5909 5909 5908 5907 5906 5904 5903 5901 5900 5898 5897 5895 5894 5893 5892 5892 5891 5890 5888 5888 5887 5886 5885 5884 5884 5883 5882 5882 5881 5881 5880 5880 5879 5878 5878
5889 5891 5891 5891 5892 5894 5896 5899 5901 5903 5903 5904 5905 5905 5905 5905 5905 5903 5902 5900 5898 5896 5895 5893 5892 5891 5890 5889 5888 5887 5886 5885 5884 5883 5882 5881 5880 5880 5879 5879 5878 5877 5876 5875 5875 5874 5874 5873 5873
5884 5885 5886 5887 5889 5891 5893 5895 5897 5899 5898 5900 5901 5901 5901 5901 5900 5899 5897 5895 5893 5891 5890 5889 5888 5886 5885 5884 5884 5883 5882 5880 5880 5879 5877 5876 5876 5875 5875 5874 5873 5872 5871 5870 5870 5869 5869 5868 5868
5880 5882 5883 5884 5886 5887 5889 5891 5893 5894 5895 5896 5896 5896 5897 5896 5895 5894 5892 5890 5889 5887 5886 5884 5884 5882 5881 5880 5880 5879 5878 5877 5876 5875 5874 5873 5872 5871 5870 5868 5867 5867 5866 5865 5864 5864 5864 5863 5863
5879 5879 5880 5882 5883 5885 5886 5888 5889 5890 5891 5892 5892 5892 5891 5891 5890 5889 5887 5886 5884 5883 5881 5880 5880 5878 5877 5877 5876 5875 5874 5873 5871 5870 5869 5868 5866 5865 5864 5863 5862 5861 5860 5859 5859 5858 5858 5858 5857
5878 5879 5880 5881 5881 5883 5884 5885 5885 5886 5886 5887 5887 5887 5886 5886 5885 5884 5883 5882 5880 5879 5878 5877 5876 5875 5874 5873 5872 5870 5869 5868 5866 5865 5863 5862 5860 5859 5858 5856 5856 5855 5854 5853 5852 5852 5851 5851 5851
5879 5879 5881 5880 5880 5881 5883 5883 5881 5881 5881 5882 5882 5882 5881 5881 5880 5879 5879 5878 5877 5876 5875 5874 5874 5872 5871 5870 5868 5866 5865 5863 5861 5859 5858 5856 5855 5853 5852 5850 5849 5848 5847 5847 5846 5846 5845 5845 5845
5881 5882 5882 5880 5879 5879 5879 5879 5878 5877 5876 5876 5876 5876 5876 5876 5876 5875 5875 5875 5874 5873 5873 5872 5871 5870 5868 5866 5864 5862 5860 5858 5856 5854 5852 5850 5849 5847 5845 5844 5843 5842 5841 5840 5840 5839 5839 5838 5838
5884 5882 5881 5879 5878 5877 5876 5875 5874 5872 5871 5871 5870 5870 5871 5871 5872 5872 5872 5872 5872 5871 5870 5869 5868 5866 5864 5862 5860 5858 5856 5853 5851 5849 5847 5845 5843 5841 5840 5838 5837 5836 5835 5834 5833 5832 5832 5831 5831
5881 5881 5879 5878 5876 5875 5874 5872 5870 5868 5867 5866 5865 5865 5866 5867 5869 5869 5870 5870 5870 5869 5868 5867 5865 5863 5860 5858 5856 5853 5851 5848 5846 5843 5841 5839 5837 5836 5834 5832 5831 5830 5828 5828 5826 5826 5825 5825 5824
5881 5880 5879 5877 5875 5873 5871 5869 5866 5863 5862 5861 5861 5862 5863 5865 5866 5868 5868 5868 5867 5867 5865 5863 5861 5859 5856 5854 5851 5849 5846 5843 5841 5838 5836 5834 5832 5830 5828 5826 5825 5823 5822 5821 5820 5819 5818 5818 5817
5880 5880 5878 5876 5874 5871 5870 5867 5864 5861 5859 5859 5859 5861 5863 5865 5866 5866 5867 5866 5865 5864 5862 5860 5858 5855 5853 5850 5847 5845 5842 5839 5836 5834 5831 5829 5827 5824 5822 5821 5819 5817 5815 5814 5813 5812 5811 5810 5810
5880 5878 5877 5875 5873 5872 5870 5868 5865 5862 5861 5860 5860 5861 5863 5865 5865 5865 5865 5864 5863 5862 5860 5858 5855 5853 5850 5848 5845 5842 5839 5836 5833 5830 5828 5825 5822 5820 5818 5816 5814 5812 5810 5808 5807 5805 5804 5803 5803
5879 5877 5875 5874 5873 5872 5870 5868 5866 5863 5862 5862 5862 5863 5864 5864 5864 5864 5864 5863 5861 5860 5858 5856 5854 5851 5849 5846 5843 5839 5836 5833 5830 5827 5824 5821 5819 5816 5814 5811 5809 5807 5804 5802 5800 5799 5797 5796 5795
5877 5876 5875 5873 5873 5873 5870 5869 5867 5865 5864 5864 5863 5863 5864 5864 5863 5863 5862 5860 5859 5858 5856 5854 5852 5849 5847 5844 5840 5837 5834 5830 5827 5824 5821 5818 5815 5812 5809 5806 5804 5801 5798 5796 5794 5791 5790 5788 5786
5877 5877 5877 5877 5876 5873 5870 5869 5868 5866 5865 5864 5864 5864 5863 5863 5862 5861 5860 5859 5858 5856 5854 5852 5850 5847 5844 5841 5838 5834 5831 5827 5824 5820 5817 5813 5810 5807 5804 5801 5798 5795 5792 5789 5786 5783 5781 5779 5777
5875 5876 5877 5876 5875 5873 5869 5868 5868 5865 5864 5864 5863 5863 5862 5861 5860 5859 5858 5857 5855 5854 5852 5850 5847 5844 5841 5838 5834 5830 5826 5823 5819 5815 5812 5808 5805 5801 5798 5795 5791 5788 5784 5781 5778 5774 5772 5769 5767
5874 5874 5873 5873 5872 5871 5869 5867 5866 5864 5864 5863 5862 5861 5860 5859 5858 5857 5856 5854 5853 5851 5849 5847 5844 5841 5838 5834 5830 5826 5822 5818 5814 5810 5806 5802 5798 5795 5791 5787 5783 5780 5776 5772 5768 5765 5762 5759 5756
5873 5871 5871 5871 5871 5872 5870 5867 5866 5863 5862 5861 5860 5859 5858 5857 5856 5855 5853 5851 5850 5848 5846 5843 5840 5837 5833 5829 5824 5820 5816 5812 5808 5804 5800 5795 5791 5787 5783 5779 5775 5770 5766 5762 5758 5754 5751 5748 5745
5870 5869 5868 5869 5868 5869 5870 5870 5863 5862 5861 5860 5859 5857 5856 5855 5854 5852 5850 5848 5846 5844 5842 5839 5835 5832 5827 5823 5819 5814 5810 5806 5801 5797 5793 5788 5784 5779 5774 5770 5765 5760 5756 5751 5747 5743 5739 5736 5733
5866 5866 5866 5867 5866 5865 5866 5869 5861 5860 5858 5857 5856 5855 5854 5852 5850 5848 5846 5844 5842 5840 5837 5834 5830 5826 5822 5817 5813 5808 5804 5799 5794 5790 5785 5781 5776 5770 5765 5760 5755 5749 5744 5740 5735 5731 5727 5723 5720